TITAN 3C TRANSTAGE DEB, 38705

Orbit data source: Space-Track

TITAN 3C TRANSTAGE DEB, 38705 is space debris in GEO originally from a launch on Thu, 26 Sep 1968 UTC launched from the Air Force Eastern Test Range (AFETR). Debris objects in space refer to the collection of defunct objects orbiting the Earth. Examples of debris include non-operational satellites, rocket bodies, and fragments generated from explosions, collisions, or faulty payload assembly.

Loading next visibility...
Identifier
38705, 1968-081AF
Orbit
GEO
Country
Flag of USUS
Related business
Manufacturer
Unknown
Mission
Spacecraft
Bus & Motor
Unknown
Mass
Unknown
Launch date (UTC)
1968-09-26 (57 years ago)
Launch vehicle
Unknown
Launch site
Air Force Eastern Test Range (AFETR)
Object type
Payload
Rocket body
Debris
Shape & HBR
Unknown shape, 1.1 m
Radar Cross Section
Small (<0.1 m²)

Expand to show TLE details & history
Last TLE update: 1 day ago

TLE from 1 day ago
0 TITAN 3C TRANSTAGE DEB
1 38705U 68081AF  26067.22589496  .00000030  00000-0  00000-0 0  9995
2 38705   2.9521  60.9671 0283966 353.2173   6.7286  1.02085258 74035
Epoch: 2026-03-08T05:25Z
TLE epoch observation values (Epoch: 2026-03-08T05:25:17.324Z)
Latitude
-0.00001°
Longitude
174.08008°
Altitude
34,114.533 km
Speed
3.181 km/s
True Right ascension
04h 05m 21s
True Declination
0° 00' 00"
Sunlit
Object was in daylight at epoch
Visualization orbit readout
Latitude
Unknown
Longitude
Unknown
Altitude
Unknown
Speed
Unknown
Apparent Right ascension
Unknown
Apparent Declination
Unknown
Sunlit
N/A
Visualization observer readout
Local Sidereal Time
16:41:37
Azimuth
Unknown
Elevation
Unknown
Doppler factor
Unknown
Orbital elements
Apogee altitude
36,469.977 km
Perigee altitude
34,103.69 km
Semi-major axis
41,664.97 km
Eccentricity
0.0284
Inclination
2.9521°
RAAN
60.9671°
Arg. of periapsis
353.2173°
True anomaly
7.12377°
Mean anomaly
6.7286°
Eccentric anomaly
6.92476°
Mean motion
0.2552 °/min
Orbital period
1,410.64 mins
BSTAR
0
Loading maneuver chart data...
Computing Atmospheric mass density...

Documentation

Showing up to 5 results
|